Time,TemperatureF,DewpointF,PressureIn,WindDirection,WindDirectionDegrees,WindSpeedMPH,WindSpeedGustMPH,Humidity,HourlyPrecipIn,Conditions,Clouds,dailyrainin,SoftwareType,DateUTC
2013-03-04 00:00:00,59.4,49.6,30.00,South,182,14.0,24.2,70,0.00,,,-99.99,FreeWX 2.03,2013-03-04 06:00:00,
2013-03-04 00:05:00,59.4,49.6,30.00,South,182,14.0,22.4,70,0.00,,,-99.99,FreeWX 2.03,2013-03-04 06:05:00,
2013-03-04 00:10:00,59.4,49.1,29.97,South,182,14.0,20.1,69,0.00,,,-99.99,FreeWX 2.03,2013-03-04 06:10:00,
2013-03-04 00:15:00,59.4,49.1,29.97,South,182,14.0,21.0,69,0.00,,,-99.99,FreeWX 2.03,2013-03-04 06:15:00,
2013-03-04 00:20:00,59.4,49.1,29.97,South,181,14.0,23.3,69,0.00,,,-99.99,FreeWX 2.03,2013-03-04 06:20:00,
2013-03-04 00:25:00,59.5,48.9,29.97,South,181,15.0,21.9,68,0.00,,,-99.99,FreeWX 2.03,2013-03-04 06:25:00,
2013-03-04 00:30:00,59.5,48.9,29.97,South,184,15.0,24.8,68,0.00,,,-99.99,FreeWX 2.03,2013-03-04 06:30:00,
2013-03-04 00:35:00,59.5,48.9,29.97,South,183,15.0,20.6,68,0.00,,,-99.99,FreeWX 2.03,2013-03-04 06:35:00,
2013-03-04 00:40:00,59.5,48.9,29.97,South,183,14.0,20.1,68,0.00,,,-99.99,FreeWX 2.03,2013-03-04 06:40:00,
2013-03-04 00:45:00,59.5,48.9,29.97,South,182,14.0,21.9,68,0.00,,,-99.99,FreeWX 2.03,2013-03-04 06:45:00,
2013-03-04 00:50:00,59.5,48.9,29.97,South,181,14.0,20.6,68,0.00,,,-99.99,FreeWX 2.03,2013-03-04 06:50:00,
2013-03-04 00:55:00,59.5,49.3,29.97,South,180,13.0,21.5,69,0.00,,,-99.99,FreeWX 2.03,2013-03-04 06:55:00,
2013-03-04 01:00:00,59.5,49.3,29.97,South,181,14.0,23.7,69,0.00,,,-99.99,FreeWX 2.03,2013-03-04 07:00:00,
2013-03-04 01:05:00,59.5,49.8,29.97,South,184,14.0,20.1,70,0.00,,,-99.99,FreeWX 2.03,2013-03-04 07:05:00,
2013-03-04 01:10:00,59.5,49.8,29.97,South,185,14.0,21.0,70,0.00,,,-99.99,FreeWX 2.03,2013-03-04 07:10:00,
2013-03-04 01:15:00,59.5,50.2,29.97,South,183,13.0,18.6,71,0.00,,,-99.99,FreeWX 2.03,2013-03-04 07:15:00,
2013-03-04 01:20:00,59.4,50.0,29.97,South,183,13.0,22.8,71,0.00,,,-99.99,FreeWX 2.03,2013-03-04 07:20:00,
2013-03-04 01:25:00,59.4,50.0,29.97,South,184,13.0,19.9,71,0.00,,,-99.99,FreeWX 2.03,2013-03-04 07:25:00,
2013-03-04 01:30:00,59.4,50.4,29.97,South,184,13.0,19.0,72,0.00,,,-99.99,FreeWX 2.03,2013-03-04 07:30:00,
2013-03-04 01:35:00,59.4,50.4,29.97,South,186,14.0,20.1,72,0.00,,,-99.99,FreeWX 2.03,2013-03-04 07:35:00,
2013-03-04 01:40:00,59.4,50.7,29.97,South,185,14.0,20.6,73,0.00,,,-99.99,FreeWX 2.03,2013-03-04 07:40:00,
2013-03-04 01:45:00,59.4,50.7,29.97,South,185,14.0,21.0,73,0.00,,,-99.99,FreeWX 2.03,2013-03-04 07:45:00,
2013-03-04 01:50:00,59.4,51.1,29.97,South,186,13.0,21.9,74,0.00,,,-99.99,FreeWX 2.03,2013-03-04 07:50:00,
2013-03-04 01:55:00,59.4,51.1,29.97,South,185,13.0,19.5,74,0.00,,,-99.99,FreeWX 2.03,2013-03-04 07:55:00,
2013-03-04 02:00:00,59.4,51.4,29.97,South,185,13.0,22.8,75,0.00,,,-99.99,FreeWX 2.03,2013-03-04 08:00:00,
2013-03-04 02:05:00,59.4,51.4,29.97,South,184,13.0,19.9,75,0.00,,,-99.99,FreeWX 2.03,2013-03-04 08:05:00,
2013-03-04 02:10:00,59.4,51.4,29.94,South,184,13.0,19.0,75,0.00,,,-99.99,FreeWX 2.03,2013-03-04 08:10:00,
2013-03-04 02:15:00,59.4,51.4,29.94,South,186,13.0,20.1,75,0.00,,,-99.99,FreeWX 2.03,2013-03-04 08:15:00,
2013-03-04 02:20:00,59.4,51.8,29.94,South,186,12.0,19.9,76,0.00,,,-99.99,FreeWX 2.03,2013-03-04 08:20:00,
2013-03-04 02:25:00,59.4,51.8,29.94,South,185,13.0,21.9,76,0.00,,,-99.99,FreeWX 2.03,2013-03-04 08:25:00,
2013-03-04 02:30:00,59.4,51.8,29.94,South,185,14.0,22.4,76,0.00,,,-99.99,FreeWX 2.03,2013-03-04 08:30:00,
2013-03-04 02:35:00,59.4,51.8,29.94,South,186,14.0,20.6,76,0.00,,,-99.99,FreeWX 2.03,2013-03-04 08:35:00,
2013-03-04 02:40:00,59.4,51.8,29.94,South,188,14.0,21.5,76,0.00,,,-99.99,FreeWX 2.03,2013-03-04 08:40:00,
2013-03-04 02:45:00,59.4,51.8,29.94,South,187,14.0,23.3,76,0.00,,,-99.99,FreeWX 2.03,2013-03-04 08:45:00,
2013-03-04 02:50:00,59.4,51.8,29.94,South,185,13.0,18.6,76,0.00,,,-99.99,FreeWX 2.03,2013-03-04 08:50:00,
2013-03-04 02:55:00,59.5,52.3,29.91,South,186,14.0,20.1,77,0.00,,,-99.99,FreeWX 2.03,2013-03-04 08:55:00,
2013-03-04 03:00:00,59.5,52.3,29.91,South,186,14.0,20.1,77,0.00,,,-99.99,FreeWX 2.03,2013-03-04 09:00:00,
2013-03-04 03:05:00,59.4,52.2,29.91,South,186,13.0,19.0,77,0.00,,,-99.99,FreeWX 2.03,2013-03-04 09:05:00,
2013-03-04 03:10:00,59.4,52.2,29.91,South,186,12.0,17.7,77,0.00,,,-99.99,FreeWX 2.03,2013-03-04 09:10:00,
2013-03-04 03:15:00,59.4,52.5,29.91,South,185,13.0,24.4,78,0.00,,,-99.99,FreeWX 2.03,2013-03-04 09:15:00,
2013-03-04 03:20:00,59.5,52.7,29.91,South,188,13.0,19.5,78,0.00,,,-99.99,FreeWX 2.03,2013-03-04 09:20:00,
2013-03-04 03:25:00,59.5,52.7,29.91,South,189,13.0,19.9,78,0.00,,,-99.99,FreeWX 2.03,2013-03-04 09:25:00,
2013-03-04 03:30:00,59.5,52.7,29.91,South,188,13.0,20.1,78,0.00,,,-99.99,FreeWX 2.03,2013-03-04 09:30:00,
2013-03-04 03:35:00,59.5,53.1,29.91,South,188,13.0,22.4,79,0.00,,,-99.99,FreeWX 2.03,2013-03-04 09:35:00,
2013-03-04 03:40:00,59.5,53.1,29.91,South,190,14.0,19.0,79,0.00,,,-99.99,FreeWX 2.03,2013-03-04 09:40:00,
2013-03-04 03:45:00,59.5,53.1,29.91,South,191,13.0,23.3,79,0.00,,,-99.99,FreeWX 2.03,2013-03-04 09:45:00,
2013-03-04 03:50:00,59.5,53.1,29.91,SSW,192,13.0,20.1,79,0.00,,,-99.99,FreeWX 2.03,2013-03-04 09:50:00,
2013-03-04 03:55:00,59.5,53.1,29.91,SSW,192,12.0,18.6,79,0.00,,,-99.99,FreeWX 2.03,2013-03-04 09:55:00,
2013-03-04 04:00:00,59.5,53.4,29.91,South,189,12.0,21.0,80,0.00,,,-99.99,FreeWX 2.03,2013-03-04 10:00:00,
2013-03-04 04:05:00,59.5,53.4,29.91,South,190,13.0,21.5,80,0.00,,,-99.99,FreeWX 2.03,2013-03-04 10:05:00,
2013-03-04 04:10:00,59.5,53.8,29.91,South,191,13.0,17.2,81,0.00,,,-99.99,FreeWX 2.03,2013-03-04 10:10:00,
2013-03-04 04:15:00,59.5,53.8,29.91,South,190,13.0,18.1,81,0.00,,,-99.99,FreeWX 2.03,2013-03-04 10:15:00,
2013-03-04 04:20:00,59.5,53.8,29.91,South,191,14.0,20.6,81,0.00,,,-99.99,FreeWX 2.03,2013-03-04 10:20:00,
2013-03-04 04:25:00,59.5,54.0,29.91,South,190,15.0,22.4,82,0.00,,,-99.99,FreeWX 2.03,2013-03-04 10:25:00,
2013-03-04 04:30:00,59.5,54.0,29.91,South,190,14.0,21.5,82,0.00,,,-99.99,FreeWX 2.03,2013-03-04 10:30:00,
2013-03-04 04:35:00,59.5,54.0,29.91,South,191,13.0,19.5,82,0.00,,,-99.99,FreeWX 2.03,2013-03-04 10:35:00,
2013-03-04 04:40:00,59.5,54.3,29.91,South,191,13.0,21.5,83,0.00,,,-99.99,FreeWX 2.03,2013-03-04 10:40:00,
2013-03-04 04:45:00,59.5,54.3,29.91,SSW,192,13.0,20.6,83,0.00,,,-99.99,FreeWX 2.03,2013-03-04 10:45:00,
2013-03-04 04:50:00,59.5,54.3,29.91,SSW,192,13.0,19.9,83,0.00,,,-99.99,FreeWX 2.03,2013-03-04 10:50:00,
2013-03-04 04:55:00,59.5,54.7,29.91,SSW,192,12.0,18.1,84,0.00,,,-99.99,FreeWX 2.03,2013-03-04 10:55:00,
2013-03-04 05:00:00,59.5,54.7,29.91,SSW,192,13.0,20.6,84,0.00,,,-99.99,FreeWX 2.03,2013-03-04 11:00:00,
2013-03-04 05:05:00,59.5,54.7,29.91,South,189,13.0,17.2,84,0.00,,,-99.99,FreeWX 2.03,2013-03-04 11:05:00,
2013-03-04 05:10:00,59.5,55.0,29.91,South,189,13.0,19.9,85,0.00,,,-99.99,FreeWX 2.03,2013-03-04 11:10:00,
2013-03-04 05:15:00,59.5,55.0,29.91,South,190,13.0,17.7,85,0.00,,,-99.99,FreeWX 2.03,2013-03-04 11:15:00,
2013-03-04 05:20:00,59.5,55.0,29.91,SSW,192,13.0,18.1,85,0.00,,,-99.99,FreeWX 2.03,2013-03-04 11:20:00,
2013-03-04 05:25:00,59.5,55.4,29.88,SSW,192,14.0,23.7,86,0.00,,,-99.99,FreeWX 2.03,2013-03-04 11:25:00,
2013-03-04 05:30:00,59.5,55.6,29.88,South,190,14.0,21.5,87,0.00,,,-99.99,FreeWX 2.03,2013-03-04 11:30:00,
2013-03-04 05:35:00,59.5,55.6,29.88,SSW,192,14.0,24.2,87,0.00,,,-99.99,FreeWX 2.03,2013-03-04 11:35:00,
2013-03-04 05:40:00,59.5,55.9,29.88,SSW,192,15.0,21.0,88,0.00,,,-99.99,FreeWX 2.03,2013-03-04 11:40:00,
2013-03-04 05:45:00,59.5,55.9,29.88,South,190,13.0,18.6,88,0.00,,,-99.99,FreeWX 2.03,2013-03-04 11:45:00,
2013-03-04 05:50:00,59.5,55.9,29.88,South,190,14.0,22.4,88,0.00,,,-99.99,FreeWX 2.03,2013-03-04 11:50:00,
2013-03-04 05:55:00,59.5,56.3,29.88,South,191,14.0,19.9,89,0.00,,,-99.99,FreeWX 2.03,2013-03-04 11:55:00,
2013-03-04 06:00:00,59.5,56.3,29.88,South,191,13.0,20.1,89,0.00,,,-99.99,FreeWX 2.03,2013-03-04 12:00:00,
2013-03-04 06:05:00,59.5,56.3,29.88,South,190,13.0,19.9,89,0.00,,,-99.99,FreeWX 2.03,2013-03-04 12:05:00,
2013-03-04 06:10:00,59.5,56.7,29.88,South,190,13.0,18.1,90,0.00,,,-99.99,FreeWX 2.03,2013-03-04 12:10:00,
2013-03-04 06:15:00,59.5,56.7,29.88,South,190,13.0,17.7,90,0.00,,,-99.99,FreeWX 2.03,2013-03-04 12:15:00,
2013-03-04 06:20:00,59.5,56.7,29.88,South,191,12.0,22.8,90,0.00,,,-99.99,FreeWX 2.03,2013-03-04 12:20:00,
2013-03-04 06:25:00,59.5,56.8,29.91,SSW,192,12.0,17.2,91,0.00,,,-99.99,FreeWX 2.03,2013-03-04 12:25:00,
2013-03-04 06:30:00,59.5,56.8,29.91,SSW,192,12.0,19.0,91,0.00,,,-99.99,FreeWX 2.03,2013-03-04 12:30:00,
2013-03-04 06:35:00,59.5,56.8,29.91,SSW,192,13.0,19.9,91,0.00,,,-99.99,FreeWX 2.03,2013-03-04 12:35:00,
2013-03-04 06:40:00,59.5,56.8,29.91,SSW,194,13.0,19.5,91,0.00,,,-99.99,FreeWX 2.03,2013-03-04 12:40:00,
2013-03-04 06:45:00,59.5,56.8,29.91,SSW,194,12.0,17.2,91,0.00,,,-99.99,FreeWX 2.03,2013-03-04 12:45:00,
2013-03-04 06:51:00,59.5,57.2,29.91,SSW,192,12.0,19.0,92,0.00,,,-99.99,FreeWX 2.03,2013-03-04 12:51:00,
2013-03-04 06:56:00,59.5,57.2,29.91,SSW,193,12.0,17.7,92,0.00,,,-99.99,FreeWX 2.03,2013-03-04 12:56:00,
2013-03-04 07:01:00,59.7,57.4,29.91,SSW,194,12.0,17.7,92,0.00,,,-99.99,FreeWX 2.03,2013-03-04 13:01:00,
2013-03-04 07:06:00,59.7,57.4,29.91,SSW,195,13.0,21.0,92,0.00,,,-99.99,FreeWX 2.03,2013-03-04 13:06:00,
2013-03-04 07:11:00,59.7,57.4,29.91,SSW,196,13.0,19.5,92,0.00,,,-99.99,FreeWX 2.03,2013-03-04 13:11:00,
2013-03-04 07:16:00,59.7,57.7,29.91,SSW,196,13.0,20.1,93,0.00,,,-99.99,FreeWX 2.03,2013-03-04 13:16:00,
2013-03-04 07:21:00,59.7,57.7,29.91,SSW,194,12.0,18.1,93,0.00,,,-99.99,FreeWX 2.03,2013-03-04 13:21:00,
2013-03-04 07:26:00,59.9,57.9,29.91,SSW,193,13.0,19.5,93,0.00,,,-99.99,FreeWX 2.03,2013-03-04 13:26:00,
2013-03-04 07:31:00,59.9,57.9,29.91,SSW,194,13.0,19.9,93,0.00,,,-99.99,FreeWX 2.03,2013-03-04 13:31:00,
2013-03-04 07:36:00,60.1,58.1,29.91,SSW,193,13.0,18.6,93,0.00,,,-99.99,FreeWX 2.03,2013-03-04 13:36:00,
2013-03-04 07:41:00,60.3,58.3,29.91,SSW,192,13.0,22.4,93,0.00,,,-99.99,FreeWX 2.03,2013-03-04 13:41:00,
2013-03-04 07:46:00,60.3,58.3,29.91,SSW,192,13.0,19.9,93,0.00,,,-99.99,FreeWX 2.03,2013-03-04 13:46:00,
2013-03-04 07:51:00,60.4,58.5,29.91,SSW,194,14.0,21.0,93,0.00,,,-99.99,FreeWX 2.03,2013-03-04 13:51:00,
2013-03-04 07:56:00,60.8,58.5,29.91,SSW,196,14.0,19.5,92,0.00,,,-99.99,FreeWX 2.03,2013-03-04 13:56:00,
2013-03-04 08:01:00,61.0,58.6,29.91,SSW,195,14.0,21.9,92,0.00,,,-99.99,FreeWX 2.03,2013-03-04 14:01:00,
2013-03-04 08:06:00,61.2,58.8,29.91,SSW,194,14.0,18.1,92,0.00,,,-99.99,FreeWX 2.03,2013-03-04 14:06:00,
2013-03-04 08:11:00,61.2,58.5,29.91,SSW,195,13.0,19.9,91,0.00,,,-99.99,FreeWX 2.03,2013-03-04 14:11:00,
2013-03-04 08:16:00,61.2,58.5,29.91,SSW,196,14.0,23.7,91,0.00,,,-99.99,FreeWX 2.03,2013-03-04 14:16:00,
2013-03-04 08:21:00,61.3,58.5,29.91,SSW,193,15.0,22.8,90,0.00,,,-99.99,FreeWX 2.03,2013-03-04 14:21:00,
2013-03-04 08:26:00,61.5,58.6,29.91,SSW,193,14.0,24.2,90,0.00,,,-99.99,FreeWX 2.03,2013-03-04 14:26:00,
2013-03-04 08:31:00,61.5,58.3,29.91,SSW,195,14.0,22.4,89,0.00,,,-99.99,FreeWX 2.03,2013-03-04 14:31:00,
2013-03-04 08:36:00,61.7,58.5,29.91,SSW,195,15.0,24.2,89,0.00,,,-99.99,FreeWX 2.03,2013-03-04 14:36:00,
2013-03-04 08:41:00,61.9,58.3,29.91,SSW,195,15.0,26.2,88,0.00,,,-99.99,FreeWX 2.03,2013-03-04 14:41:00,
2013-03-04 08:46:00,62.1,58.1,29.91,SSW,194,15.0,24.2,87,0.00,,,-99.99,FreeWX 2.03,2013-03-04 14:46:00,
2013-03-04 08:51:00,62.2,58.3,29.91,SSW,194,14.0,21.5,87,0.00,,,-99.99,FreeWX 2.03,2013-03-04 14:51:00,
2013-03-04 08:56:00,62.4,58.1,29.91,SSW,196,14.0,21.0,86,0.00,,,-99.99,FreeWX 2.03,2013-03-04 14:56:00,
2013-03-04 09:01:00,62.4,57.9,29.91,SSW,196,15.0,26.2,85,0.00,,,-99.99,FreeWX 2.03,2013-03-04 15:01:00,
2013-03-04 09:06:00,62.6,57.7,29.91,SSW,195,15.0,24.8,84,0.00,,,-99.99,FreeWX 2.03,2013-03-04 15:06:00,
2013-03-04 09:11:00,62.8,57.6,29.91,SSW,194,14.0,21.5,83,0.00,,,-99.99,FreeWX 2.03,2013-03-04 15:11:00,
2013-03-04 09:16:00,63.0,57.4,29.91,SSW,194,15.0,23.7,82,0.00,,,-99.99,FreeWX 2.03,2013-03-04 15:16:00,
2013-03-04 09:21:00,63.0,57.0,29.91,SSW,197,16.0,26.6,81,0.00,,,-99.99,FreeWX 2.03,2013-03-04 15:21:00,
2013-03-04 09:26:00,63.1,57.2,29.91,SSW,196,16.0,24.2,81,0.00,,,-99.99,FreeWX 2.03,2013-03-04 15:26:00,
2013-03-04 09:31:00,63.3,57.0,29.91,SSW,194,16.0,28.6,80,0.00,,,-99.99,FreeWX 2.03,2013-03-04 15:31:00,
2013-03-04 09:36:00,63.5,56.8,29.91,SSW,194,17.0,25.3,79,0.00,,,-99.99,FreeWX 2.03,2013-03-04 15:36:00,
2013-03-04 09:41:00,63.7,57.0,29.91,SSW,193,17.0,26.6,79,0.00,,,-99.99,FreeWX 2.03,2013-03-04 15:41:00,
2013-03-04 09:46:00,63.9,56.8,29.91,SSW,192,15.0,20.6,78,0.00,,,-99.99,FreeWX 2.03,2013-03-04 15:46:00,
2013-03-04 09:51:00,64.0,56.7,29.91,SSW,196,14.0,20.6,77,0.00,,,-99.99,FreeWX 2.03,2013-03-04 15:51:00,
2013-03-04 09:56:00,64.4,56.7,29.91,SSW,196,16.0,24.8,76,0.00,,,-99.99,FreeWX 2.03,2013-03-04 15:56:00,
2013-03-04 10:01:00,64.8,56.3,29.91,SSW,193,17.0,25.3,74,0.00,,,-99.99,FreeWX 2.03,2013-03-04 16:01:00,
2013-03-04 10:06:00,64.9,56.1,29.91,South,191,17.0,27.1,73,0.00,,,-99.99,FreeWX 2.03,2013-03-04 16:06:00,
2013-03-04 10:11:00,65.3,56.1,29.91,South,188,16.0,24.8,72,0.00,,,-99.99,FreeWX 2.03,2013-03-04 16:11:00,
2013-03-04 10:16:00,65.5,55.8,29.91,South,189,16.0,22.8,71,0.00,,,-99.99,FreeWX 2.03,2013-03-04 16:16:00,
2013-03-04 10:21:00,65.7,55.6,29.91,SSW,193,16.0,24.4,70,0.00,,,-99.99,FreeWX 2.03,2013-03-04 16:21:00,
2013-03-04 10:26:00,65.8,55.4,29.88,SSW,194,16.0,29.1,69,0.00,,,-99.99,FreeWX 2.03,2013-03-04 16:26:00,
2013-03-04 10:31:00,65.8,55.0,29.88,South,190,16.0,24.4,68,0.00,,,-99.99,FreeWX 2.03,2013-03-04 16:31:00,
2013-03-04 10:36:00,65.8,54.5,29.88,South,187,18.0,28.6,67,0.00,,,-99.99,FreeWX 2.03,2013-03-04 16:36:00,
2013-03-04 10:41:00,65.8,54.1,29.88,South,187,19.0,28.0,66,0.00,,,-99.99,FreeWX 2.03,2013-03-04 16:41:00,
2013-03-04 10:46:00,65.8,54.5,29.88,South,188,18.0,27.1,67,0.00,,,-99.99,FreeWX 2.03,2013-03-04 16:46:00,
2013-03-04 10:51:00,66.2,54.5,29.88,South,185,18.0,30.0,66,0.00,,,-99.99,FreeWX 2.03,2013-03-04 16:51:00,
2013-03-04 10:56:00,66.0,53.4,29.88,South,185,19.0,28.6,64,0.00,,,-99.99,FreeWX 2.03,2013-03-04 16:56:00,
2013-03-04 11:01:00,66.2,54.1,29.88,South,183,18.0,28.4,65,0.00,,,-99.99,FreeWX 2.03,2013-03-04 17:01:00,
2013-03-04 11:06:00,66.4,53.8,29.88,South,184,17.0,28.6,64,0.00,,,-99.99,FreeWX 2.03,2013-03-04 17:06:00,
2013-03-04 11:11:00,66.4,53.4,29.88,South,186,17.0,27.5,63,0.00,,,-99.99,FreeWX 2.03,2013-03-04 17:11:00,
2013-03-04 11:16:00,66.6,53.6,29.88,South,188,17.0,24.4,63,0.00,,,-99.99,FreeWX 2.03,2013-03-04 17:16:00,
2013-03-04 11:21:00,66.7,53.8,29.88,South,187,17.0,26.6,63,0.00,,,-99.99,FreeWX 2.03,2013-03-04 17:21:00,
2013-03-04 11:26:00,66.9,53.4,29.88,South,186,16.0,24.2,62,0.00,,,-99.99,FreeWX 2.03,2013-03-04 17:26:00,
2013-03-04 11:31:00,67.1,53.6,29.88,South,185,15.0,24.4,62,0.00,,,-99.99,FreeWX 2.03,2013-03-04 17:31:00,
2013-03-04 11:36:00,67.5,53.6,29.88,South,187,15.0,22.4,61,0.00,,,-99.99,FreeWX 2.03,2013-03-04 17:36:00,
2013-03-04 11:41:00,67.5,53.6,29.88,South,186,14.0,23.7,61,0.00,,,-99.99,FreeWX 2.03,2013-03-04 17:41:00,
2013-03-04 11:46:00,67.6,53.2,29.88,South,180,15.0,26.2,60,0.00,,,-99.99,FreeWX 2.03,2013-03-04 17:46:00,
2013-03-04 11:51:00,67.6,53.2,29.88,South,175,16.0,25.3,60,0.00,,,-99.99,FreeWX 2.03,2013-03-04 17:51:00,
2013-03-04 11:56:00,67.5,53.1,29.88,South,176,16.0,24.4,60,0.00,,,-99.99,FreeWX 2.03,2013-03-04 17:56:00,
2013-03-04 12:01:00,67.6,53.8,29.88,South,181,15.0,22.4,61,0.00,,,-99.99,FreeWX 2.03,2013-03-04 18:01:00,
2013-03-04 12:06:00,67.8,53.4,29.88,South,183,14.0,21.5,60,0.00,,,-99.99,FreeWX 2.03,2013-03-04 18:06:00,
2013-03-04 12:11:00,67.8,53.4,29.85,South,178,16.0,24.8,60,0.00,,,-99.99,FreeWX 2.03,2013-03-04 18:11:00,
2013-03-04 12:16:00,67.8,53.4,29.85,South,172,15.0,20.6,60,0.00,,,-99.99,FreeWX 2.03,2013-03-04 18:16:00,
2013-03-04 12:21:00,68.0,53.1,29.85,SSE,168,15.0,24.8,59,0.00,,,-99.99,FreeWX 2.03,2013-03-04 18:21:00,
2013-03-04 12:26:00,68.0,53.1,29.85,SSE,166,18.0,26.2,59,0.00,,,-99.99,FreeWX 2.03,2013-03-04 18:26:00,
2013-03-04 12:31:00,68.0,53.1,29.85,SSE,163,17.0,25.3,59,0.00,,,-99.99,FreeWX 2.03,2013-03-04 18:31:00,
2013-03-04 12:36:00,68.2,53.2,29.85,SSE,162,16.0,29.1,59,0.00,,,-99.99,FreeWX 2.03,2013-03-04 18:36:00,
2013-03-04 12:41:00,68.2,52.9,29.82,SSE,167,17.0,26.6,58,0.00,,,-99.99,FreeWX 2.03,2013-03-04 18:41:00,
2013-03-04 12:46:00,68.4,53.1,29.82,South,171,16.0,28.0,58,0.00,,,-99.99,FreeWX 2.03,2013-03-04 18:46:00,
2013-03-04 12:51:00,68.5,53.2,29.82,SSE,168,15.0,25.3,58,0.00,,,-99.99,FreeWX 2.03,2013-03-04 18:51:00,
2013-03-04 12:56:00,68.5,52.7,29.82,SSE,165,14.0,24.2,57,0.00,,,-99.99,FreeWX 2.03,2013-03-04 18:56:00,
2013-03-04 13:01:00,68.7,52.9,29.82,SSE,163,14.0,25.7,57,0.00,,,-99.99,FreeWX 2.03,2013-03-04 19:01:00,
2013-03-04 13:06:00,68.7,52.9,29.82,SSE,161,14.0,24.8,57,0.00,,,-99.99,FreeWX 2.03,2013-03-04 19:06:00,
2013-03-04 13:11:00,68.7,52.3,29.82,SSE,161,15.0,26.2,56,0.00,,,-99.99,FreeWX 2.03,2013-03-04 19:11:00,
2013-03-04 13:16:00,68.9,52.5,29.82,SSE,158,14.0,22.8,56,0.00,,,-99.99,FreeWX 2.03,2013-03-04 19:16:00,
2013-03-04 13:21:00,68.9,52.5,29.82,SSE,158,14.0,26.6,56,0.00,,,-99.99,FreeWX 2.03,2013-03-04 19:21:00,
2013-03-04 13:26:00,68.9,52.0,29.79,SSE,161,15.0,24.4,55,0.00,,,-99.99,FreeWX 2.03,2013-03-04 19:26:00,
2013-03-04 13:31:00,68.9,52.0,29.79,SSE,161,15.0,25.7,55,0.00,,,-99.99,FreeWX 2.03,2013-03-04 19:31:00,
2013-03-04 13:36:00,68.9,52.0,29.79,SSE,161,14.0,28.4,55,0.00,,,-99.99,FreeWX 2.03,2013-03-04 19:36:00,
2013-03-04 13:41:00,68.9,52.0,29.79,SSE,159,15.0,27.5,55,0.00,,,-99.99,FreeWX 2.03,2013-03-04 19:41:00,
2013-03-04 13:46:00,68.9,52.0,29.79,SSE,158,16.0,28.4,55,0.00,,,-99.99,FreeWX 2.03,2013-03-04 19:46:00,
2013-03-04 13:51:00,68.9,52.5,29.79,SSE,156,14.0,21.9,56,0.00,,,-99.99,FreeWX 2.03,2013-03-04 19:51:00,
2013-03-04 13:56:00,69.1,52.2,29.79,SSE,154,13.0,24.8,55,0.00,,,-99.99,FreeWX 2.03,2013-03-04 19:56:00,
2013-03-04 14:01:00,68.9,52.5,29.79,SSE,158,14.0,26.2,56,0.00,,,-99.99,FreeWX 2.03,2013-03-04 20:01:00,
2013-03-04 14:06:00,68.9,52.5,29.79,SSE,160,14.0,23.7,56,0.00,,,-99.99,FreeWX 2.03,2013-03-04 20:06:00,
2013-03-04 14:11:00,68.9,52.5,29.79,SSE,159,14.0,28.6,56,0.00,,,-99.99,FreeWX 2.03,2013-03-04 20:11:00,
2013-03-04 14:17:00,68.7,52.3,29.79,SSE,160,15.0,25.7,56,0.00,,,-99.99,FreeWX 2.03,2013-03-04 20:17:00,
2013-03-04 14:22:00,68.7,52.3,29.79,SSE,161,15.0,26.6,56,0.00,,,-99.99,FreeWX 2.03,2013-03-04 20:22:00,
2013-03-04 14:27:00,68.7,52.3,29.79,SSE,159,15.0,27.5,56,0.00,,,-99.99,FreeWX 2.03,2013-03-04 20:27:00,
2013-03-04 14:32:00,68.5,52.2,29.79,SSE,160,16.0,28.0,56,0.00,,,-99.99,FreeWX 2.03,2013-03-04 20:32:00,
2013-03-04 14:37:00,68.5,52.7,29.79,SSE,158,16.0,27.5,57,0.00,,,-99.99,FreeWX 2.03,2013-03-04 20:37:00,
2013-03-04 14:42:00,68.7,52.9,29.76,SSE,153,13.0,22.4,57,0.00,,,-99.99,FreeWX 2.03,2013-03-04 20:42:00,
2013-03-04 14:47:00,68.5,52.7,29.76,SSE,152,14.0,25.3,57,0.00,,,-99.99,FreeWX 2.03,2013-03-04 20:47:00,
2013-03-04 14:52:00,68.5,52.7,29.76,SSE,156,15.0,26.2,57,0.00,,,-99.99,FreeWX 2.03,2013-03-04 20:52:00,
2013-03-04 14:57:00,68.5,52.7,29.76,SSE,156,14.0,21.9,57,0.00,,,-99.99,FreeWX 2.03,2013-03-04 20:57:00,
2013-03-04 15:02:00,68.4,52.5,29.76,SSE,154,14.0,28.4,57,0.00,,,-99.99,FreeWX 2.03,2013-03-04 21:02:00,
2013-03-04 15:07:00,68.4,52.5,29.76,SSE,152,14.0,24.2,57,0.00,,,-99.99,FreeWX 2.03,2013-03-04 21:07:00,
2013-03-04 15:12:00,68.2,52.9,29.76,SSE,153,15.0,30.9,58,0.00,,,-99.99,FreeWX 2.03,2013-03-04 21:12:00,
2013-03-04 15:17:00,68.0,52.7,29.76,SSE,155,16.0,26.6,58,0.00,,,-99.99,FreeWX 2.03,2013-03-04 21:17:00,
2013-03-04 15:22:00,68.0,53.1,29.76,SSE,153,15.0,26.2,59,0.00,,,-99.99,FreeWX 2.03,2013-03-04 21:22:00,
2013-03-04 15:27:00,68.0,53.1,29.76,SSE,153,14.0,22.8,59,0.00,,,-99.99,FreeWX 2.03,2013-03-04 21:27:00,
2013-03-04 15:32:00,68.0,53.1,29.76,SSE,152,13.0,28.6,59,0.00,,,-99.99,FreeWX 2.03,2013-03-04 21:32:00,
2013-03-04 15:37:00,67.8,53.4,29.76,SSE,152,14.0,28.0,60,0.00,,,-99.99,FreeWX 2.03,2013-03-04 21:37:00,
2013-03-04 15:42:00,67.6,53.2,29.76,SSE,151,14.0,24.8,60,0.00,,,-99.99,FreeWX 2.03,2013-03-04 21:42:00,
2013-03-04 15:47:00,67.6,53.2,29.76,SSE,154,15.0,26.2,60,0.00,,,-99.99,FreeWX 2.03,2013-03-04 21:47:00,
2013-03-04 15:52:00,67.5,53.6,29.76,SSE,154,15.0,30.9,61,0.00,,,-99.99,FreeWX 2.03,2013-03-04 21:52:00,
2013-03-04 15:57:00,67.5,53.6,29.76,SSE,152,14.0,24.2,61,0.00,,,-99.99,FreeWX 2.03,2013-03-04 21:57:00,
2013-03-04 16:02:00,67.5,53.6,29.76,SSE,153,13.0,24.2,61,0.00,,,-99.99,FreeWX 2.03,2013-03-04 22:02:00,
2013-03-04 16:07:00,67.5,54.0,29.76,SSE,152,14.0,25.3,62,0.00,,,-99.99,FreeWX 2.03,2013-03-04 22:07:00,
2013-03-04 16:12:00,67.3,53.8,29.74,SSE,152,15.0,25.7,62,0.00,,,-99.99,FreeWX 2.03,2013-03-04 22:12:00,
2013-03-04 16:17:00,67.1,54.1,29.74,SSE,154,14.0,24.4,63,0.00,,,-99.99,FreeWX 2.03,2013-03-04 22:17:00,
2013-03-04 16:22:00,67.1,54.5,29.74,SSE,156,14.0,28.0,64,0.00,,,-99.99,FreeWX 2.03,2013-03-04 22:22:00,
2013-03-04 16:27:00,66.9,54.7,29.74,SSE,155,13.0,24.4,65,0.00,,,-99.99,FreeWX 2.03,2013-03-04 22:27:00,
2013-03-04 16:32:00,66.9,54.7,29.74,SSE,153,13.0,26.6,65,0.00,,,-99.99,FreeWX 2.03,2013-03-04 22:32:00,
2013-03-04 16:37:00,66.9,55.2,29.74,SSE,156,14.0,24.4,66,0.00,,,-99.99,FreeWX 2.03,2013-03-04 22:37:00,
2013-03-04 16:42:00,66.7,55.4,29.74,SSE,158,15.0,28.6,67,0.00,,,-99.99,FreeWX 2.03,2013-03-04 22:42:00,
2013-03-04 16:47:00,66.6,55.6,29.74,SSE,157,14.0,21.9,68,0.00,,,-99.99,FreeWX 2.03,2013-03-04 22:47:00,
2013-03-04 16:52:00,66.6,56.1,29.74,SSE,154,13.0,30.0,69,0.00,,,-99.99,FreeWX 2.03,2013-03-04 22:52:00,
2013-03-04 16:57:00,66.4,55.9,29.74,SSE,157,14.0,30.4,69,0.00,,,-99.99,FreeWX 2.03,2013-03-04 22:57:00,
2013-03-04 17:02:00,66.2,56.1,29.74,SSE,157,14.0,23.7,70,0.00,,,-99.99,FreeWX 2.03,2013-03-04 23:02:00,
2013-03-04 17:07:00,66.2,56.1,29.74,SSE,156,13.0,27.1,70,0.00,,,-99.99,FreeWX 2.03,2013-03-04 23:07:00,
2013-03-04 17:12:00,66.2,56.1,29.74,SSE,159,13.0,22.8,70,0.00,,,-99.99,FreeWX 2.03,2013-03-04 23:12:00,
2013-03-04 17:17:00,66.0,56.3,29.74,SSE,159,14.0,27.5,71,0.00,,,-99.99,FreeWX 2.03,2013-03-04 23:17:00,
2013-03-04 17:22:00,65.8,56.5,29.74,SSE,156,13.0,27.1,72,0.00,,,-99.99,FreeWX 2.03,2013-03-04 23:22:00,
2013-03-04 17:27:00,65.7,56.3,29.74,SSE,158,15.0,27.1,72,0.00,,,-99.99,FreeWX 2.03,2013-03-04 23:27:00,
2013-03-04 17:32:00,65.5,56.7,29.74,SSE,160,16.0,27.5,73,0.00,,,-99.99,FreeWX 2.03,2013-03-04 23:32:00,
2013-03-04 17:37:00,65.3,56.5,29.74,SSE,160,15.0,26.6,73,0.00,,,-99.99,FreeWX 2.03,2013-03-04 23:37:00,
2013-03-04 17:42:00,65.3,56.8,29.74,SSE,161,15.0,27.5,74,0.00,,,-99.99,FreeWX 2.03,2013-03-04 23:42:00,
2013-03-04 17:47:00,65.1,57.0,29.74,SSE,161,14.0,19.9,75,0.00,,,-99.99,FreeWX 2.03,2013-03-04 23:47:00,
2013-03-04 17:52:00,64.9,56.8,29.74,SSE,162,14.0,25.7,75,0.00,,,-99.99,FreeWX 2.03,2013-03-04 23:52:00,
2013-03-04 17:57:00,64.9,57.2,29.74,SSE,164,14.0,28.4,76,0.00,,,-99.99,FreeWX 2.03,2013-03-04 23:57:00,
2013-03-04 18:02:00,64.8,57.0,29.74,SSE,165,15.0,27.1,76,0.00,,,-99.99,FreeWX 2.03,2013-03-05 00:02:00,
2013-03-04 18:07:00,64.6,57.2,29.74,SSE,164,15.0,26.6,77,0.00,,,-99.99,FreeWX 2.03,2013-03-05 00:07:00,
2013-03-04 18:12:00,64.6,57.2,29.74,SSE,165,15.0,25.7,77,0.00,,,-99.99,FreeWX 2.03,2013-03-05 00:12:00,
2013-03-04 18:17:00,64.4,57.4,29.74,SSE,165,14.0,28.6,78,0.00,,,-99.99,FreeWX 2.03,2013-03-05 00:17:00,
2013-03-04 18:22:00,64.2,57.6,29.74,SSE,166,14.0,29.5,79,0.00,,,-99.99,FreeWX 2.03,2013-03-05 00:22:00,
2013-03-04 18:27:00,64.0,57.7,29.74,SSE,167,14.0,28.4,80,0.00,,,-99.99,FreeWX 2.03,2013-03-05 00:27:00,
2013-03-04 18:32:00,63.9,57.9,29.74,SSE,165,14.0,27.5,81,0.00,,,-99.99,FreeWX 2.03,2013-03-05 00:32:00,
2013-03-04 18:37:00,63.9,57.9,29.74,SSE,165,14.0,22.4,81,0.00,,,-99.99,FreeWX 2.03,2013-03-05 00:37:00,
2013-03-04 18:42:00,63.7,58.1,29.76,SSE,164,13.0,24.4,82,0.00,,,-99.99,FreeWX 2.03,2013-03-05 00:42:00,
2013-03-04 18:47:00,63.7,58.1,29.76,SSE,164,13.0,23.7,82,0.00,,,-99.99,FreeWX 2.03,2013-03-05 00:47:00,
2013-03-04 18:52:00,63.7,58.1,29.76,SSE,168,14.0,23.7,82,0.00,,,-99.99,FreeWX 2.03,2013-03-05 00:52:00,
2013-03-04 18:57:00,63.7,58.5,29.76,South,170,14.0,23.7,83,0.00,,,-99.99,FreeWX 2.03,2013-03-05 00:57:00,
2013-03-04 19:02:00,63.5,58.3,29.76,South,171,13.0,19.9,83,0.00,,,-99.99,FreeWX 2.03,2013-03-05 01:02:00,
2013-03-04 19:07:00,63.5,58.3,29.76,South,173,12.0,20.1,83,0.00,,,-99.99,FreeWX 2.03,2013-03-05 01:07:00,
2013-03-04 19:12:00,63.5,58.3,29.76,South,176,13.0,22.4,83,0.00,,,-99.99,FreeWX 2.03,2013-03-05 01:12:00,
2013-03-04 19:17:00,63.5,58.6,29.76,South,177,14.0,22.4,84,0.00,,,-99.99,FreeWX 2.03,2013-03-05 01:17:00,
2013-03-04 19:22:00,63.5,58.6,29.76,South,176,13.0,22.8,84,0.00,,,-99.99,FreeWX 2.03,2013-03-05 01:22:00,
2013-03-04 19:27:00,63.5,58.8,29.76,South,176,13.0,24.2,85,0.00,,,-99.99,FreeWX 2.03,2013-03-05 01:27:00,
2013-03-04 19:32:00,63.5,58.8,29.76,South,177,14.0,23.3,85,0.00,,,-99.99,FreeWX 2.03,2013-03-05 01:32:00,
2013-03-04 19:37:00,63.3,59.0,29.76,South,176,14.0,22.8,86,0.00,,,-99.99,FreeWX 2.03,2013-03-05 01:37:00,
2013-03-04 19:42:00,63.3,59.0,29.76,South,175,13.0,22.8,86,0.00,,,-99.99,FreeWX 2.03,2013-03-05 01:42:00,
2013-03-04 19:47:00,63.3,59.4,29.76,South,172,12.0,19.5,87,0.00,,,-99.99,FreeWX 2.03,2013-03-05 01:47:00,
2013-03-04 19:52:00,63.3,59.4,29.76,South,172,12.0,24.2,87,0.00,,,-99.99,FreeWX 2.03,2013-03-05 01:52:00,
2013-03-04 19:57:00,63.3,59.4,29.76,South,173,13.0,24.2,87,0.00,,,-99.99,FreeWX 2.03,2013-03-05 01:57:00,
2013-03-04 20:02:00,63.3,59.4,29.76,South,175,14.0,24.4,87,0.00,,,-99.99,FreeWX 2.03,2013-03-05 02:02:00,
2013-03-04 20:07:00,63.3,59.7,29.76,South,176,13.0,22.8,88,0.00,,,-99.99,FreeWX 2.03,2013-03-05 02:07:00,
2013-03-04 20:12:00,63.3,59.7,29.76,South,177,14.0,24.2,88,0.00,,,-99.99,FreeWX 2.03,2013-03-05 02:12:00,
2013-03-04 20:17:00,63.3,59.7,29.76,South,181,15.0,24.2,88,0.00,,,-99.99,FreeWX 2.03,2013-03-05 02:17:00,
2013-03-04 20:22:00,63.3,60.1,29.76,South,182,16.0,27.5,89,0.00,,,-99.99,FreeWX 2.03,2013-03-05 02:22:00,
2013-03-04 20:27:00,63.3,60.1,29.76,South,184,17.0,25.7,89,0.00,,,-99.99,FreeWX 2.03,2013-03-05 02:27:00,
2013-03-04 20:32:00,63.1,59.9,29.76,South,183,15.0,24.2,89,0.00,,,-99.99,FreeWX 2.03,2013-03-05 02:32:00,
2013-03-04 20:37:00,63.1,59.9,29.76,South,183,14.0,28.4,89,0.00,,,-99.99,FreeWX 2.03,2013-03-05 02:37:00,
2013-03-04 20:42:00,63.1,60.1,29.79,South,184,14.0,25.3,90,0.00,,,-99.99,FreeWX 2.03,2013-03-05 02:42:00,
2013-03-04 20:47:00,63.1,60.1,29.79,South,182,14.0,24.2,90,0.00,,,-99.99,FreeWX 2.03,2013-03-05 02:47:00,
2013-03-04 20:52:00,63.1,60.1,29.79,South,180,14.0,22.8,90,0.00,,,-99.99,FreeWX 2.03,2013-03-05 02:52:00,
2013-03-04 20:57:00,63.1,60.1,29.79,South,182,13.0,21.0,90,0.00,,,-99.99,FreeWX 2.03,2013-03-05 02:57:00,
2013-03-04 21:02:00,63.1,60.4,29.79,South,183,13.0,22.8,91,0.00,,,-99.99,FreeWX 2.03,2013-03-05 03:02:00,
2013-03-04 21:07:00,63.0,60.3,29.79,South,182,13.0,22.4,91,0.00,,,-99.99,FreeWX 2.03,2013-03-05 03:07:00,
2013-03-04 21:13:00,63.0,60.3,29.79,South,181,13.0,20.1,91,0.00,,,-99.99,FreeWX 2.03,2013-03-05 03:13:00,
2013-03-04 21:18:00,63.0,60.6,29.79,South,184,13.0,21.5,92,0.00,,,-99.99,FreeWX 2.03,2013-03-05 03:18:00,
2013-03-04 21:23:00,62.8,60.4,29.79,South,185,13.0,21.5,92,0.00,,,-99.99,FreeWX 2.03,2013-03-05 03:23:00,
2013-03-04 21:28:00,62.8,60.4,29.79,South,182,12.0,20.1,92,0.00,,,-99.99,FreeWX 2.03,2013-03-05 03:28:00,
2013-03-04 21:33:00,62.8,60.4,29.79,South,183,12.0,22.4,92,0.00,,,-99.99,FreeWX 2.03,2013-03-05 03:33:00,
2013-03-04 21:38:00,62.8,60.8,29.79,South,183,13.0,21.9,93,0.00,,,-99.99,FreeWX 2.03,2013-03-05 03:38:00,
2013-03-04 21:43:00,62.8,60.8,29.79,South,182,13.0,20.1,93,0.00,,,-99.99,FreeWX 2.03,2013-03-05 03:43:00,
2013-03-04 21:48:00,62.8,60.8,29.79,South,185,14.0,22.4,93,0.00,,,-99.99,FreeWX 2.03,2013-03-05 03:48:00,
2013-03-04 21:53:00,62.6,60.6,29.79,South,188,15.0,22.4,93,0.00,,,-99.99,FreeWX 2.03,2013-03-05 03:53:00,
2013-03-04 21:58:00,62.6,60.6,29.82,South,189,15.0,22.8,93,0.00,,,-99.99,FreeWX 2.03,2013-03-05 03:58:00,
2013-03-04 22:03:00,62.6,60.8,29.82,South,190,15.0,24.8,94,0.00,,,-99.99,FreeWX 2.03,2013-03-05 04:03:00,
2013-03-04 22:08:00,62.6,60.8,29.82,South,189,14.0,21.9,94,0.00,,,-99.99,FreeWX 2.03,2013-03-05 04:08:00,
2013-03-04 22:13:00,62.6,60.8,29.82,South,187,14.0,23.3,94,0.00,,,-99.99,FreeWX 2.03,2013-03-05 04:13:00,
2013-03-04 22:18:00,62.6,60.8,29.82,South,187,15.0,24.4,94,0.00,,,-99.99,FreeWX 2.03,2013-03-05 04:18:00,
2013-03-04 22:23:00,62.6,60.8,29.82,South,187,16.0,22.4,94,0.00,,,-99.99,FreeWX 2.03,2013-03-05 04:23:00,
2013-03-04 22:28:00,62.6,61.2,29.79,South,189,15.0,23.7,95,0.00,,,-99.99,FreeWX 2.03,2013-03-05 04:28:00,
2013-03-04 22:33:00,62.6,61.2,29.79,South,188,14.0,21.0,95,0.00,,,-99.99,FreeWX 2.03,2013-03-05 04:33:00,
2013-03-04 22:38:00,62.6,61.2,29.79,South,185,14.0,20.6,95,0.00,,,-99.99,FreeWX 2.03,2013-03-05 04:38:00,
2013-03-04 22:43:00,62.6,61.2,29.79,South,185,14.0,20.6,95,0.00,,,-99.99,FreeWX 2.03,2013-03-05 04:43:00,
2013-03-04 22:48:00,62.6,61.2,29.79,South,185,14.0,24.2,95,0.00,,,-99.99,FreeWX 2.03,2013-03-05 04:48:00,
2013-03-04 22:53:00,62.6,61.2,29.79,South,186,14.0,23.3,95,0.00,,,-99.99,FreeWX 2.03,2013-03-05 04:53:00,
2013-03-04 22:58:00,62.4,61.3,29.79,South,187,14.0,24.2,96,0.00,,,-99.99,FreeWX 2.03,2013-03-05 04:58:00,
2013-03-04 23:03:00,62.4,61.3,29.79,South,188,15.0,22.4,96,0.00,,,-99.99,FreeWX 2.03,2013-03-05 05:03:00,
2013-03-04 23:08:00,62.4,61.3,29.79,South,187,15.0,24.4,96,0.00,,,-99.99,FreeWX 2.03,2013-03-05 05:08:00,
2013-03-04 23:13:00,62.4,61.3,29.79,South,185,15.0,21.5,96,0.00,,,-99.99,FreeWX 2.03,2013-03-05 05:13:00,
2013-03-04 23:18:00,62.4,61.5,29.79,South,187,15.0,23.3,97,0.00,,,-99.99,FreeWX 2.03,2013-03-05 05:18:00,
2013-03-04 23:23:00,62.4,61.5,29.79,South,188,15.0,24.2,97,0.00,,,-99.99,FreeWX 2.03,2013-03-05 05:23:00,
2013-03-04 23:28:00,62.2,61.3,29.79,South,189,15.0,23.7,97,0.00,,,-99.99,FreeWX 2.03,2013-03-05 05:28:00,
2013-03-04 23:33:00,62.2,61.3,29.79,South,187,14.0,22.4,97,0.00,,,-99.99,FreeWX 2.03,2013-03-05 05:33:00,
2013-03-04 23:38:00,62.2,61.3,29.79,South,186,15.0,23.3,97,0.00,,,-99.99,FreeWX 2.03,2013-03-05 05:38:00,
2013-03-04 23:43:00,62.2,61.3,29.79,South,186,15.0,24.2,97,0.00,,,-99.99,FreeWX 2.03,2013-03-05 05:43:00,
2013-03-04 23:48:00,62.2,61.7,29.79,South,187,15.0,23.3,98,0.00,,,-99.99,FreeWX 2.03,2013-03-05 05:48:00,
2013-03-04 23:53:00,62.2,61.7,29.79,South,188,15.0,22.4,98,0.00,,,-99.99,FreeWX 2.03,2013-03-05 05:53:00,
2013-03-04 23:58:00,62.2,61.7,29.79,South,187,16.0,21.9,98,0.00,,,-99.99,FreeWX 2.03,2013-03-05 05:58:00,